FW6870 Weather Reports


Display with metric or nautical units.
time (UTC)temp
F
wind
direction
speed
MPH
gust
MPH
rain 1hr
in
rain 24hr
in
rain mn
in
humidity
%
barometer
mb
20260503231528 66 227 9.0 14.0 0.00 0.00 0.00 43 1016.2
20260503230030 67 234 7.0 12.0 0.00 0.00 0.00 41 1016.2
20260503224529 67 242 7.0 15.0 0.00 0.08 0.00 41 1016.2
20260503223032 68 233 7.0 13.0 0.00 0.08 0.00 40 1016.3
20260503221535 67 214 5.0 17.0 0.00 0.08 0.00 40 1016.3
20260503220037 67 213 12.0 20.0 0.00 0.08 0.00 39 1016.4
20260503214541 68 192 8.0 15.0 0.00 0.16 0.00 40 1016.3
20260503213034 68 238 8.0 14.0 0.00 0.16 0.00 38 1016.6
20260503211530 68 194 5.0 10.0 0.00 0.16 0.00 40 1016.8
20260503210029 67 224 9.0 15.0 0.00 0.16 0.00 39 1017.0
20260503204531 67 242 4.0 12.0 0.00 0.16 0.00 43 1017.1
20260503203030 67 269 7.0 16.0 0.00 0.16 0.00 40 1017.3
20260503201532 66 313 10.0 19.0 0.00 0.16 0.00 41 1017.6
20260503200030 66 296 1.0 10.0 0.00 0.16 0.00 41 1018.0
20260503194527 65 227 5.0 14.0 0.00 0.16 0.00 43 1018.2
20260503193031 65 194 6.0 14.0 0.00 0.16 0.00 44 1018.5
20260503191530 65 197 4.0 12.0 0.00 0.16 0.00 44 1018.7
20260503190038 65 232 8.0 13.0 0.00 0.16 0.00 43 1019.1
20260503184530 64 230 6.0 14.0 0.00 0.16 0.00 45 1019.3
20260503183038 63 209 9.0 16.0 0.00 0.16 0.00 45 1019.4
20260503181546 63 294 6.0 14.0 0.00 0.16 0.00 45 1019.6
20260503180040 63 194 3.0 14.0 0.00 0.16 0.00 45 1019.6
20260503174529 62 224 7.0 12.0 0.00 0.16 0.00 46 1019.7
20260503173029 62 203 6.0 10.0 0.00 0.16 0.00 47 1019.9
20260503171528 61 276 1.0 11.0 0.00 0.16 0.00 47 1020.2
20260503081528 51 5 8.0 9.0 0.00 0.16 0.00 59 1017.9
20260503071527 52 5 7.0 10.0 0.00 0.16 0.00 58 1017.3
20260503054535 52 342 7.0 9.0 0.00 0.16 0.00 57 1017.3
20260503053026 53 360 6.0 11.0 0.00 0.16 0.00 56 1017.2
20260503051526 53 355 6.0 10.0 0.00 0.16 0.00 54 1017.1
20260503050029 54 327 5.0 8.0 0.00 0.16 0.00 52 1017.2
20260503044528 55 336 5.0 8.0 0.00 0.16 0.00 49 1017.1
20260503043027 55 5 6.0 8.0 0.00 0.16 0.00 48 1017.0
20260503041530 55 15 4.0 8.0 0.00 0.16 0.00 49 1016.9
20260503040032 55 17 5.0 9.0 0.00 0.16 0.00 50 1017.1
20260503034526 55 18 6.0 9.0 0.00 0.16 0.16 50 1016.8
20260503033026 55 5 6.0 9.0 0.00 0.16 0.16 49 1016.7
20260503031528 55 17 6.0 10.0 0.00 0.16 0.16 50 1016.7
20260503030033 55 12 5.0 8.0 0.00 0.16 0.16 50 1016.5
20260503024531 56 34 5.0 10.0 0.00 0.16 0.16 49 1016.3
20260503023028 57 11 7.0 12.0 0.00 0.16 0.16 49 1016.2
20260503021528 57 39 7.0 12.0 0.00 0.16 0.16 45 1016.0
20260503020028 57 44 7.0 12.0 0.00 0.16 0.16 45 1015.7
20260503014530 56 33 6.0 11.0 0.00 0.16 0.16 49 1015.3
20260503013029 56 11 6.0 11.0 0.00 0.16 0.16 51 1015.2
20260503011532 56 18 9.0 13.0 0.00 0.16 0.16 53 1015.0
20260503010033 56 355 6.0 10.0 0.00 0.16 0.16 56 1014.7
20260503004526 56 24 7.0 11.0 0.00 0.16 0.16 62 1014.3
20260503003029 57 9 4.0 10.0 0.00 0.16 0.16 76 1014.0
20260503001529 58 33 3.0 5.0 0.00 0.16 0.16 82 1013.7
20260503000030 58 36 3.0 7.0 0.00 0.16 0.16 80 1013.3
20260502234534 57 44 3.0 6.0 0.00 0.16 0.16 85 1013.0
20260502233028 57 100 4.0 8.0 0.00 0.16 0.16 85 1012.8